Погода в Тхане

Индия     19°12′41″N   72°58′55″E
темп.,
°C
ветер,
м/с
пор.,
м/с
влажн.,
%
обл.,
%
осадки,
мм/ч
давл.,
гПа
погр.,
м
13 мая, чт
чт1323:30+30зюз2360100 0.0 1006927
02:30+29зюз2266100 0.0 1005841
05:30+28з126899 0.0 1005484
08:30+30з2260100 0.0 10071091
11:30+33з3244100 0.0 10061283
14:30+35з643420 0.0 10031329
17:30+33зсз6539100 0.0 1003971
20:30+31зсз3350100 0.0 1004708
14 мая, пт
пт1423:30+30зсз235688 0.0 1005389
02:30+29сз1260100 0.0 1003342
05:30+28ссз2262100 0.0 1003342
08:30+30всв1155100 0.0 1005726
11:30+35з223253 0.0 10041142
14:30+37з6431100 0.0 10011413
17:30+34зсз664573 0.0 1000640
20:30+32з225315 0.0 1002601
15 мая, сб
сб1523:30+31ссз2255100 0.0 1002429
02:30+30ссз3459100 0.0 1000441
05:30+30ссв356360 0.0 1000390
08:30+33ссв3641100 0.0 1001540
11:30+40ссв352061 0.0 10001785
14:30+42ссв4619100 0.0 9972604
17:30+42всв4618100 0.0 9953194
20:30+38с2526100 0.3 996470
16 мая, вс
вс1623:30+36с2332100 0.3 998140
02:30+32ююз586296 0.0 998536
05:30+31ю2268100 0.0 997282
08:30+34в5944100 0.0 9991313
11:30+39вюв81230100 0.0 9982755
14:30+35вюв61240100 0.0 9971864
17:30+33в41149100 0.9 9951288
20:30+32в71549100 0.1 9971410
17 мая, пн
пн1723:30+32в91651100 0.1 9971461
02:30+29вюв81662100 1.0 9951399
05:30+30вюв71556100 1.4 9961602
08:30+32вюв91850100 0.0 9971790
11:30+33ююв91747100 0.3 9992251
14:30+30ююв91854100 0.1 9981876
17:30+29ююв91860100 0.3 9991610
20:30+30ююв81653100 0.0 10001803